| time (UTC) | temp F | wind direction | speed MPH | gust MPH | rain 1hr in | rain 24hr in | rain mn in | humidity % | barometer mb |
| 20260903020034 | 81 | 299 | 0.0 | 3.0 | 0.00 | 0.00 | 0.00 | 37 | 1019.2 |
| 20260903013033 | 82 | 289 | 3.0 | 5.0 | 0.00 | 0.00 | 0.00 | 39 | 1019.5 |
| 20260903010033 | 81 | 338 | 3.0 | 4.0 | 0.00 | 0.00 | 0.00 | 37 | 1019.6 |
| 20260903003033 | 81 | 322 | 4.0 | 5.0 | 0.00 | 0.00 | 0.00 | 38 | 1019.7 |
| 20260903000032 | 81 | 355 | 3.0 | 5.0 | 0.00 | 0.00 | 0.00 | 38 | 1019.7 |
| 20260902233032 | 81 | 355 | 2.0 | 4.0 | 0.00 | 0.00 | 0.00 | 37 | 1020.1 |
| 20260902230032 | 81 | 348 | 1.0 | 3.0 | 0.00 | 0.00 | 0.00 | 37 | 1020.1 |
| 20260902223032 | 81 | 355 | 1.0 | 3.0 | 0.00 | 0.00 | 0.00 | 36 | 1020.0 |
| 20260902220031 | 81 | 343 | 3.0 | 4.0 | 0.00 | 0.00 | 0.00 | 37 | 1020.2 |
| 20260902213031 | 82 | 341 | 2.0 | 4.0 | 0.00 | 0.00 | 0.00 | 37 | 1020.3 |
| 20260902210030 | 83 | 314 | 4.0 | 4.0 | 0.00 | 0.00 | 0.00 | 34 | 1020.5 |
| 20260902203030 | 83 | 360 | 6.0 | 8.0 | 0.00 | 0.00 | 0.00 | 37 | 1020.2 |
| 20260902200030 | 83 | 355 | 4.0 | 8.0 | 0.00 | 0.00 | 0.00 | 37 | 1020.4 |
| 20260902193031 | 83 | 334 | 5.0 | 9.0 | 0.00 | 0.00 | 0.00 | 41 | 1020.4 |
| 20260902190030 | 83 | 332 | 6.0 | 10.0 | 0.00 | 0.00 | 0.00 | 41 | 1020.1 |
| 20260902180029 | 84 | 330 | 3.0 | 5.0 | 0.00 | 0.00 | 0.00 | 39 | 1019.3 |
| 20260902173028 | 83 | 290 | 2.0 | 4.0 | 0.00 | 0.00 | 0.00 | 47 | 1019.2 |
| 20260902163027 | 86 | 9 | 3.0 | 5.0 | 0.00 | 0.00 | 0.00 | 47 | 1019.4 |
| 20260902160027 | 87 | 319 | 3.0 | 10.0 | 0.00 | 0.00 | 0.00 | 49 | 1019.7 |
| 20260902153027 | 88 | 5 | 6.0 | 9.0 | 0.00 | 0.00 | 0.00 | 41 | 1019.7 |
| 20260902150026 | 90 | 329 | 9.0 | 9.0 | 0.00 | 0.00 | 0.00 | 33 | 1019.7 |
| 20260902143026 | 92 | 289 | 4.0 | 10.0 | 0.00 | 0.00 | 0.00 | 32 | 1019.8 |
| 20260902140026 | 93 | 265 | 9.0 | 11.0 | 0.00 | 0.00 | 0.00 | 30 | 1019.7 |
| 20260902133025 | 94 | 355 | 5.0 | 8.0 | 0.00 | 0.00 | 0.00 | 28 | 1020.2 |
| 20260902130026 | 94 | 308 | 9.0 | 13.0 | 0.00 | 0.00 | 0.00 | 26 | 1020.4 |
| 20260902123025 | 93 | 281 | 4.0 | 5.0 | 0.00 | 0.00 | 0.00 | 28 | 1020.7 |
| 20260902120025 | 92 | 339 | 2.0 | 11.0 | 0.00 | 0.00 | 0.00 | 28 | 1020.8 |
| 20260902113024 | 93 | 313 | 8.0 | 8.0 | 0.00 | 0.00 | 0.00 | 28 | 1020.9 |
| 20260902110024 | 91 | 312 | 8.0 | 11.0 | 0.00 | 0.00 | 0.00 | 30 | 1021.1 |
| 20260902103024 | 90 | 315 | 5.0 | 10.0 | 0.00 | 0.00 | 0.00 | 31 | 1021.2 |
| 20260902100024 | 90 | 326 | 4.0 | 10.0 | 0.00 | 0.00 | 0.00 | 32 | 1021.5 |
| 20260902093023 | 88 | 296 | 4.0 | 8.0 | 0.00 | 0.00 | 0.00 | 36 | 1021.5 |
| 20260902090023 | 88 | 22 | 3.0 | 5.0 | 0.00 | 0.00 | 0.00 | 35 | 1021.4 |
| 20260902083023 | 87 | 13 | 7.0 | 11.0 | 0.00 | 0.00 | 0.00 | 36 | 1021.4 |
| 20260902063021 | 81 | 19 | 3.0 | 10.0 | 0.00 | 0.00 | 0.00 | 54 | 1020.1 |
| 20260902060021 | 79 | 5 | 4.0 | 8.0 | 0.00 | 0.00 | 0.00 | 58 | 1019.8 |
| 20260902053020 | 78 | 17 | 5.0 | 9.0 | 0.00 | 0.00 | 0.00 | 60 | 1019.5 |
| 20260902050020 | 77 | 340 | 3.0 | 10.0 | 0.00 | 0.00 | 0.00 | 60 | 1019.2 |
| 20260902043020 | 76 | 9 | 5.0 | 8.0 | 0.00 | 0.00 | 0.00 | 66 | 1019.3 |
| 20260902040020 | 75 | 355 | 5.0 | 6.0 | 0.00 | 0.00 | 0.00 | 73 | 1019.2 |
| 20260902030020 | 74 | 338 | 5.0 | 8.0 | 0.00 | 0.00 | 0.00 | 78 | 1019.3 |